Погода в Монастырщине

Россия / Смоленская область     54°21′05″N   31°50′25″E
темп.,
°C
ветер,
м/с
пор.,
м/с
влажн.,
%
обл.,
%
осадки,
мм/ч
давл.,
гПа
погр.,
м
16 мая, вс
вс1600:00+11ююз4109657 0.1 1009227
03:00+10ююз399741 0.1 1009194
06:00+10ююз3796100 0.0 1010182
09:00+15ююз358575 0.1 1011448
12:00+19юз346631 0.0 10111233
15:00+20ююз336474 1.5 10121331
18:00+18ююз237473 0.6 1012337
21:00+15юв2285100 0.7 101215
17 мая, пн
пн1700:00+13юв2287100 0.0 101220
03:00+12вюв3390100 0.0 101241
06:00+12вюв3791100 0.0 1012151
09:00+17вюв4880100 0.0 1011329
12:00+21в466690 0.0 1009808
15:00+23вюв6963100 0.0 10061491
18:00+23вюв6116520 0.1 1004662
21:00+18в4128320 0.2 1004228
18 мая, вт
вт1800:00+16вюв51188100 0.1 1003273
03:00+16вюв51292100 0.2 1002359
06:00+16вюв61393100 0.0 1001408
09:00+18юв91482100 0.1 10011288
12:00+16ююв81387100 0.1 1002985
15:00+19ю81175100 0.3 10031163
18:00+19ю5978100 0.6 1004916
21:00+15юв4991100 2.4 1004200
19 мая, ср
ср1900:00+13вюв3695100 0.0 1003111
03:00+13в3494100 0.0 100389
06:00+13всв3592100 0.0 1001139
09:00+15всв2493100 1.1 1000326
12:00+17ююв5782100 0.8 1000901
15:00+18ююв687680 1.7 10001061
18:00+16ю6987100 2.0 1000725
21:00+13ю2596100 2.1 1001159
20 мая, чт
чт2000:00+13юв369973 2.7 1000213
03:00+12ююв4797100 4.4 1000363
06:00+12ююв3697100 0.3 1000319
09:00+11зюз3395100 0.4 1001377
12:00+11з5693100 0.1 1003654
15:00+10з71392100 0.3 1006794
18:00+12з7128447 0.1 10071188
21:00+10з37915 0.2 1009194